Inquirer Daily News

Weather

Get conditions and forecasts for any City, State, ZIP code or Country:  
Northeast Philadelphia, PA
on Tuesday, November 20, 2012

Tuesday
Previous Day Next Day
Daily Summary
 ActualAverage (KTTN)Record (KTTN)
Temperature
Mean Temperature °F 44°F  
Max Temperature 51°F 53°F 76°F (1985)
Min Temperature 36°F 36°F 17°F (1984)
Degree Days
Heating Degree Days 22 21  
Month to date heating degree days 354  
Since 1 July heating degree days 751  
Cooling Degree Days 0 0  
Month to date cooling degree days 0  
Year to date cooling degree days 965  
Moisture
Dew Point 33°F   
Average Humidity 66    
Maximum Humidity 89    
Minimum Humidity 43    
Precipitation
Precipitation 0.00 in 0.10 in 1.90 in (1988)
Month to date precipitation 2.10  
Year to date precipitation 41.53  
Wind
Wind Speed 5 mph   
Max Wind Speed 8 mph   
Max Gust Speed mph   
Visibility 10 miles   
Events     

Key: T is trace of precipitation, MM is missing value
Source: NWS Daily Summary
Time(EST)TemperatureDew PointHumidity Pressure Visibility Wind DirectionWind SpeedGust SpeedPrecipitationEvents Conditions
12:54 AM 46.0°F 37.9°F 73% 30.24 in 10.0 miles NE 4.6 mph - N/A   Overcast
1:54 AM 46.0°F 39.0°F 76% 30.23 in 10.0 miles NE 4.6 mph - N/A   Overcast
2:54 AM 46.0°F 37.9°F 73% 30.23 in 10.0 miles North 3.5 mph - N/A   Overcast
3:41 AM 39.2°F 35.6°F 87% 30.21 in 10.0 miles NE 6.9 mph - N/A   Scattered Clouds
3:54 AM 39.0°F 34.0°F 82% 30.21 in 10.0 miles NE 8.1 mph - N/A   Partly Cloudy
4:54 AM 37.0°F 34.0°F 89% 30.22 in 10.0 miles North 4.6 mph - N/A   Clear
5:54 AM 36.0°F 32.0°F 86% 30.21 in 10.0 miles NE 4.6 mph - N/A   Clear
6:54 AM 36.0°F 32.0°F 86% 30.21 in 10.0 miles ENE 4.6 mph - N/A   Clear
7:54 AM 39.0°F 34.0°F 82% 30.22 in 10.0 miles Calm Calm - N/A   Clear
8:54 AM 43.0°F 35.1°F 74% 30.21 in 10.0 miles NE 5.8 mph - N/A   Clear
9:54 AM 46.0°F 35.1°F 66% 30.22 in 10.0 miles Calm Calm - N/A   Clear
10:54 AM 48.0°F 33.1°F 56% 30.19 in 10.0 miles Variable 4.6 mph - N/A   Clear
11:54 AM 51.1°F 33.1°F 50% 30.16 in 10.0 miles Variable 6.9 mph - N/A   Clear
12:54 PM 51.1°F 30.9°F 46% 30.15 in 10.0 miles NNE 8.1 mph - N/A   Clear
1:54 PM 51.1°F 30.0°F 44% 30.14 in 10.0 miles NE 4.6 mph - N/A   Clear
2:54 PM 51.1°F 28.9°F 43% 30.13 in 10.0 miles NE 5.8 mph - N/A   Clear
3:54 PM 48.9°F 34.0°F 56% 30.14 in 10.0 miles North 4.6 mph - N/A   Clear
4:54 PM 48.0°F 32.0°F 54% 30.13 in 10.0 miles North 6.9 mph - N/A   Clear
5:54 PM 46.9°F 30.0°F 52% 30.14 in 10.0 miles NNE 6.9 mph - N/A   Clear
6:54 PM 45.0°F 30.0°F 56% 30.15 in 10.0 miles NE 3.5 mph - N/A   Clear
7:54 PM 45.0°F 30.0°F 56% 30.15 in 10.0 miles NE 3.5 mph - N/A   Clear
8:54 PM 43.0°F 30.9°F 62% 30.15 in 10.0 miles NE 3.5 mph - N/A   Clear
9:54 PM 43.0°F 30.9°F 62% 30.16 in 10.0 miles NE 6.9 mph - N/A   Clear
10:54 PM 42.1°F 30.9°F 65% 30.17 in 10.0 miles Calm Calm - N/A   Clear
11:54 PM 39.0°F 30.0°F 70% 30.16 in 10.0 miles North 4.6 mph - N/A   Clear
Astronomy
Sunrise:06:51 AM (EST) Moon Rise:12:24 PM (EST)11/20
Sunset:04:39 PM (EST) Moon Set:No Moon Set/
Moon Phase
Nov. 20 Nov. 28 Dec. 06 Dec. 13 Dec. 20

Copyright © 2014 The Weather Underground, Inc.